Flag Weather past 2 weeks in Paris, France

Now
63 °F

Clear.


Feels Like: 63 °F
Forecast: 49 / 66 °F
Wind: 7 mph from South

Location: Villacoublay

Current Time: Oct 30, 2014 at 6:35:11 PM

Latest Report: Oct 30, 2014 at 6:00 PM


Visibility: N/A

Pressure: 30.18 "Hg

Humidity: 59%

Dew point: 48 °F

Location of ParisLocation

Historic Weather in Paris — Graph

°F

Paris temperature yesterday

Maximum temperature yesterday: 61 °F (at 3:00 PM)
Minimum temperature yesterday: 48 °F (at 4:00 AM)
Average temperature yesterday: 53 °F

Past Weeks' High & Low Weather Summary

 TemperatureHumidityPressure
High73 °F (Oct 18, 2:00 PM)100% (Oct 17, 4:00 AM)30.33 "Hg (Oct 17, 4:00 AM)
Low43 °F (Oct 22, 7:00 AM)52% (Oct 30, 3:00 PM)29.65 "Hg (Oct 16, 4:30 AM)
Average56 °F85%30.08 "Hg
* Reported Oct 15 6:00 PM — Oct 30 5:30 PM, Paris, Weather by CustomWeather, © 2014

Note: Actual official high and low records may vary slightly from our data, if they occured in-between our weather recording intervals... More about our weather records

Advertising

Paris weather history for previous 24 hours

 ConditionsComfort  
Time TempWeatherWind HumidityBarometerVisibility
5:30 PM
Oct 30
63 °FClear.8 mph64%30.18 "HgN/A
5:00 PM64 °FClear.6 mph60%30.18 "HgN/A
4:30 PM64 °FClear.6 mph60%30.18 "HgN/A
4:00 PM64 °FClear.6 mph60%30.18 "HgN/A
3:30 PM66 °FClear.8 mph56%30.15 "HgN/A
3:00 PM66 °FClear.7 mph52%30.18 "HgN/A
2:30 PM66 °FClear.6 mph60%30.18 "HgN/A
2:00 PM64 °FClear.6 mph64%30.18 "HgN/A
1:30 PM64 °FClear.7 mph64%30.18 "HgN/A
1:00 PM64 °FClear.7 mph64%30.18 "HgN/A
12:30 PM64 °FClear.7 mph64%30.18 "HgN/A
12:00 PM63 °FClear.7 mph68%30.18 "HgN/A
11:30 AM63 °FClear.7 mph68%30.18 "HgN/A
11:00 AM61 °FClear.7 mph68%30.18 "HgN/A
10:30 AM59 °FClear.5 mph77%30.18 "HgN/A
10:00 AM57 °FClear.5 mph82%30.18 "HgN/A
9:30 AM54 °FClear.5 mph94%30.18 "HgN/A
9:00 AM54 °FClear.3 mph88%30.18 "HgN/A
8:30 AM52 °FClear.3 mph94%30.18 "Hg6 mi
8:00 AM52 °FClear.1 mph94%30.18 "Hg6 mi
7:30 AM52 °FClear.3 mph94%30.15 "Hg4 mi
7:00 AM52 °FFog.5 mph94%30.15 "Hg2 mi
6:30 AM52 °FFog.2 mph94%30.15 "Hg0 mi
6:00 AM52 °FLight fog.No wind100%30.15 "Hg1 mi
5:30 AM54 °FLight fog.2 mph94%30.15 "Hg1 mi
5:00 AM54 °FClear.2 mph94%30.15 "Hg4 mi
4:30 AM54 °FClear.5 mph94%30.15 "Hg4 mi
4:00 AM54 °FFog.3 mph94%30.15 "Hg3 mi
3:30 AM54 °FClear.3 mph100%30.15 "Hg4 mi
3:00 AM54 °FClear.No wind94%30.15 "Hg4 mi
2:30 AM55 °FClear.3 mph88%30.12 "Hg4 mi
2:00 AM55 °FClear.2 mph94%30.12 "Hg6 mi
1:30 AM55 °FClear.1 mph94%30.12 "Hg4 mi
1:00 AM55 °FClear.2 mph94%30.12 "Hg4 mi
12:30 AM55 °FClear.No wind94%30.12 "Hg4 mi
12:00 AM55 °FClear.3 mph94%30.12 "Hg4 mi
11:30 PM
Oct 29
55 °FClear.5 mph94%30.12 "Hg5 mi
11:00 PM55 °FClear.5 mph94%30.09 "Hg4 mi
10:30 PM55 °FClear.3 mph94%30.09 "Hg5 mi
10:00 PM57 °FClear.5 mph88%30.09 "Hg5 mi
9:30 PM57 °FClear.5 mph88%30.09 "HgN/A
9:00 PM57 °FClear.3 mph88%30.09 "HgN/A
8:30 PM57 °FClear.3 mph88%30.09 "HgN/A
8:00 PM55 °FClear.2 mph94%30.09 "HgN/A
7:30 PM57 °FClear.3 mph88%30.09 "HgN/A
7:00 PM57 °FClear.5 mph88%30.09 "HgN/A
6:30 PM57 °FClear.3 mph88%30.09 "HgN/A
6:00 PM59 °FClear.3 mph82%30.09 "HgN/A
Weather by CustomWeather, © 2014

See weather overviewHow to use our weather pages